Location: Ashton River Estates
(39.1762°N, 77.0261°W)
Time: 23:53:49
(UTC+00:00)

Cosmos 1892 - Pass Details

Date: 29 October 2020
Orbit: 504 x 524 km, 82.5° (Epoch: 03 December)

Event Time Altitude Azimuth Distance (km) Brightness Sun altitude
Rises 23:15:39 0° 355° (N) 2,664 6.3 -13.3°
Reaches altitude 10° 23:17:48 10° 357° (N) 1,772 5.4 -13.7°
Maximum altitude 23:21:41 70° 82° (E) 563 2.6 -14.4°
Drops below altitude 10° 23:25:32 10° 166° (SSE) 1,756 5.3 -15.2°
Sets 23:27:40 0° 169° (SSE) 2,638 6.2 -15.6°
